User: anonymous   Login
Location: Carri�res
(48.9069°N, 2.1792°E)
Time: 07:52:40
(UTC+00:00)
Language:

BREEZE-M DEB (TANK) - Orbit

View from above orbital plane
View from above orbital plane
View from above satellite
View from above satellite

Ground track
Ground track

The orbit data is extracted from the following two-line orbital elements,

1 38089U 12007C   21101.65530813  .00001064  00000-0  28569-3 0  9998
2 38089  49.5750 188.3041 5034723 189.8136 154.7052  5.53667442182877
Epoch (UTC): 11 April 2021 15:43:38
Eccentricity: 0.5034723
inclination: 49.5750°
perigee height: 323 km
apogee height: 13914 km
right ascension of ascending node: 188.3041°
argument of perigee: 189.8136°
revolutions per day: 5.53667442
mean anomaly at epoch: 154.7052°
orbit number at epoch: 18287

The dashed part of the orbit path shows where the satellite is in the earth's shadow,  

DLR